Wind_Speed
19 19 19 20 21 22 22 22 22 22 22 22 22 22 22 22 22 22 23 23 23 22 23 23 23 23 23 23 22 22 22 22 22 22 22 22 22 21
20 20 21 22 23 23 23 24 24 24 23 23 23 23 23 24 24 24 24 24 24 24 24 24 24 24 25 25 24 24 23 23 23 23 23 23 22 22
21 21 22 23 24 24 25 25 25 25 25 25 25 25 25 25 26 26 26 26 26 26 26 26 26 27 27 26 26 25 24 24 23 24 24 24 24 24
22 22 23 23 24 24 25 26 26 27 27 27 27 27 27 27 26 27 27 27 28 28 28 28 28 28 28 28 28 27 26 26 25 25 24 25 25 25
23 24 24 25 25 25 26 27 27 28 28 28 28 29 29 29 28 28 28 28 29 29 29 29 29 29 30 29 28 28 28 27 27 26 26 26 26 25
24 25 26 27 27 27 27 28 29 29 30 30 30 30 30 30 29 29 29 29 29 30 30 29 29 29 29 29 29 28 28 27 27 27 27 27 27 26
26 26 26 27 27 28 28 28 29 30 30 30 30 30 30 30 30 30 30 30 30 31 30 29 29 29 29 28 28 29 28 28 27 27 28 28 27 27
27 27 27 27 28 28 28 28 29 29 29 30 29 30 30 31 30 30 31 31 30 31 30 30 30 30 30 29 29 28 28 28 28 28 28 28 27 27
27 27 27 27 28 28 28 28 28 29 30 30 30 30 30 31 31 30 30 31 31 31 31 31 31 30 30 30 30 30 29 29 29 28 29 28 28 28
28 28 28 28 28 29 29 29 29 29 30 30 30 31 31 31 31 31 31 31 31 31 32 31 31 30 30 30 30 30 30 29 29 29 29 29 29 28
28 28 29 29 29 29 29 29 29 30 30 31 31 32 32 32 32 32 32 32 31 31 32 32 31 31 31 31 31 32 32 31 31 30 30 30 30 29
29 28 28 29 29 30 30 30 30 31 31 32 32 32 33 33 34 34 33 33 33 32 32 32 32 32 31 31 31 32 32 32 32 31 30 30 31 31
29 29 29 29 30 31 31 31 31 32 32 33 33 33 34 34 35 35 34 34 34 34 33 33 32 32 32 31 31 31 32 31 32 32 31 30 31 31
31 31 31 31 31 32 32 32 33 34 34 34 34 34 34 35 35 35 35 34 34 34 34 34 33 32 32 32 31 31 31 32 32 32 32 31 31 31
32 32 33 32 32 33 33 33 34 35 35 35 35 34 34 35 34 34 34 34 34 34 33 33 32 32 32 32 31 31 32 32 32 32 32 32 32 32
32 32 33 33 33 33 33 33 34 34 35 35 34 34 34 34 34 34 33 33 33 33 33 32 32 32 32 32 31 31 31 31 31 32 32 32 33 33
32 32 33 32 32 32 32 33 33 34 34 34 33 33 33 33 33 33 32 32 31 31 31 31 31 31 31 31 31 31 31 31 31 32 33 33 33 33
33 33 33 32 32 32 32 33 33 33 34 34 33 33 32 32 32 32 32 31 31 31 31 31 31 32 32 32 33 32 32 32 32 33 33 33 33 33
33 33 33 32 32 32 32 32 32 33 33 33 32 32 32 32 31 31 31 31 31 31 31 31 31 31 32 32 32 33 33 33 33 33 33 32 33 33
33 33 33 32 32 32 32 32 32 32 31 31 31 31 31 31 31 31 30 30 31 31 31 31 31 31 31 31 31 32 32 33 33 33 33 33 33 33
32 32 32 32 31 31 31 32 32 31 31 30 30 30 31 31 31 31 30 30 30 30 31 31 31 31 31 31 31 32 32 33 33 33 33 33 33 33
32 32 32 31 32 32 32 32 32 31 31 31 31 30 30 30 30 30 30 29 30 30 30 30 30 30 30 31 31 31 31 32 32 32 32 32 32 32
32 32 32 31 32 32 31 31 31 30 30 30 30 30 29 29 29 29 29 29 29 29 29 29 29 30 30 30 30 30 30 31 31 30 30 30 31 31
Wind_Direction
276 277 276 275 275 276 277 277 277 277 276 277 277 277 278 278 277 278 279 280 280 281 282 281 280 279 278 277 278 277 275 274 272 271 270 269 269 269
277 277 277 277 276 277 277 276 277 277 276 277 278 277 277 276 276 278 278 279 278 279 279 279 278 278 278 278 278 277 277 275 274 272 270 268 269 269
279 280 280 280 279 277 277 276 276 276 275 275 276 277 276 276 276 277 278 278 279 279 277 277 278 278 277 276 277 276 275 275 274 272 270 269 269 269
280 280 280 281 281 279 277 275 274 275 275 275 276 277 277 277 277 278 278 277 277 278 279 278 277 277 276 277 277 278 277 276 275 274 273 271 271 269
283 282 282 281 281 281 279 276 274 273 274 275 275 276 277 277 277 277 278 278 278 278 279 278 277 277 276 277 277 278 277 276 274 273 272 271 272 271
285 285 283 283 282 281 280 277 276 274 274 274 275 275 276 276 276 276 277 278 278 277 277 278 278 277 277 276 275 276 275 273 273 271 271 271 270 269
287 286 285 284 284 282 280 277 277 276 275 275 275 275 276 276 277 277 277 277 276 278 279 278 277 276 275 275 275 274 273 272 271 270 271 271 269 268
287 288 287 286 285 284 282 279 278 277 276 276 276 276 276 277 277 278 278 278 278 278 279 278 276 274 273 273 274 274 273 271 270 270 270 270 270 268
288 288 287 287 286 285 283 281 280 279 277 278 277 277 277 277 278 278 278 278 278 278 278 278 277 275 273 273 273 272 272 271 269 269 269 269 269 268
287 287 287 287 286 286 284 283 282 281 280 279 278 278 278 279 279 279 279 278 278 277 277 276 276 274 272 272 271 270 270 269 268 269 270 269 268 266
288 287 287 287 286 285 284 283 282 282 281 280 280 280 279 280 279 279 278 278 278 277 277 276 275 273 272 271 270 270 268 267 267 269 269 269 268 267
287 287 287 287 286 285 285 283 282 282 282 281 280 280 280 279 279 278 278 278 278 278 277 276 274 272 271 269 269 268 267 267 267 268 269 269 268 267
285 286 286 285 285 285 285 284 283 283 282 281 280 280 280 280 278 277 278 278 278 277 276 275 273 270 269 269 269 268 267 267 268 268 269 269 269 267
285 285 285 285 285 286 286 285 284 283 282 281 281 280 281 280 279 278 277 278 278 276 275 274 272 269 268 268 268 267 268 268 268 268 268 269 269 267
287 286 286 286 285 285 285 285 284 283 283 282 281 280 281 280 280 279 278 277 277 275 273 272 272 270 269 269 268 268 267 268 268 268 268 268 269 267
286 286 286 286 286 286 285 285 285 284 284 283 281 280 281 281 280 279 278 277 276 274 272 271 271 271 270 269 268 269 269 268 268 267 268 268 268 266
285 285 286 286 286 286 285 286 286 285 284 283 282 281 281 281 281 281 280 277 275 273 272 270 270 270 270 270 269 269 270 269 269 269 269 268 269 267
287 287 286 286 286 286 286 287 287 287 286 284 282 280 280 281 281 280 280 277 275 273 272 271 270 269 270 271 270 269 270 269 269 270 270 270 269 268
287 287 286 285 285 286 287 288 288 288 287 284 282 280 279 279 280 280 279 276 274 272 272 272 271 271 271 271 271 270 269 269 270 270 271 271 270 267
287 286 286 285 284 285 287 287 288 288 286 284 282 281 281 281 280 279 277 274 273 272 271 272 272 271 271 271 271 271 270 269 269 269 269 270 269 268
286 285 284 284 284 285 286 286 287 287 285 285 285 284 284 282 280 279 277 275 273 273 271 272 273 273 272 271 271 270 270 269 269 269 269 269 269 268
287 284 283 283 284 285 286 286 286 286 285 285 286 285 284 282 281 279 278 277 275 274 273 272 272 272 272 272 272 272 272 271 270 270 269 269 269 268
286 286 284 284 285 286 286 286 285 284 284 285 285 285 284 283 281 279 279 278 276 274 273 272 272 274 274 273 274 273 272 271 269 269 269 269 270 269
Height
5808 5808 5808 5808 5808 5808 5808 5809 5809 5809 5810 5809 5809 5809 5809 5808 5808 5808 5807 5807 5807 5806 5805 5805 5805 5805 5805 5805 5804 5804 5804 5804 5805 5805 5806 5807 5807 5807
5803 5803 5803 5802 5802 5802 5802 5802 5803 5803 5803 5803 5803 5802 5802 5802 5802 5801 5801 5800 5800 5800 5799 5799 5798 5798 5798 5798 5798 5798 5798 5798 5798 5798 5799 5800 5800 5801
5797 5797 5796 5796 5796 5796 5796 5795 5796 5796 5796 5796 5796 5795 5795 5795 5795 5794 5794 5793 5793 5793 5792 5792 5792 5791 5791 5791 5791 5791 5791 5791 5791 5791 5791 5792 5793 5794
5791 5791 5790 5790 5789 5788 5788 5788 5788 5788 5788 5789 5789 5788 5788 5787 5787 5787 5786 5786 5785 5785 5784 5784 5784 5783 5783 5783 5783 5783 5783 5783 5783 5783 5784 5785 5785 5786
5784 5784 5783 5783 5782 5781 5781 5780 5780 5780 5780 5780 5780 5780 5780 5779 5779 5779 5778 5778 5777 5777 5776 5776 5775 5775 5775 5775 5775 5775 5775 5775 5775 5776 5776 5777 5777 5778
5777 5776 5776 5775 5774 5773 5773 5772 5772 5771 5771 5771 5771 5771 5771 5770 5770 5770 5770 5769 5769 5768 5768 5767 5767 5767 5767 5767 5767 5766 5766 5766 5767 5767 5768 5768 5769 5770
5770 5768 5767 5767 5766 5765 5764 5763 5763 5762 5762 5762 5762 5762 5761 5761 5761 5761 5760 5760 5759 5759 5758 5758 5758 5758 5758 5758 5758 5758 5758 5758 5758 5758 5759 5759 5760 5761
5762 5761 5760 5759 5758 5756 5755 5754 5754 5754 5753 5753 5752 5752 5752 5752 5751 5751 5751 5751 5750 5750 5749 5748 5748 5748 5748 5748 5748 5748 5749 5749 5749 5750 5750 5750 5751 5752
5754 5753 5751 5750 5749 5748 5747 5746 5745 5744 5744 5744 5743 5743 5742 5742 5742 5741 5741 5740 5740 5739 5739 5739 5738 5738 5738 5738 5738 5739 5739 5739 5740 5740 5741 5741 5742 5743
5745 5744 5743 5742 5740 5739 5738 5737 5736 5736 5735 5734 5734 5733 5733 5732 5731 5731 5730 5730 5729 5729 5728 5729 5728 5728 5728 5728 5728 5729 5729 5729 5730 5731 5731 5732 5732 5733
5736 5735 5734 5733 5731 5730 5729 5728 5727 5727 5725 5725 5724 5723 5722 5722 5721 5721 5720 5719 5719 5719 5718 5718 5718 5718 5718 5718 5718 5718 5719 5719 5720 5721 5721 5722 5722 5723
5727 5726 5725 5723 5722 5721 5720 5719 5718 5717 5715 5715 5714 5713 5712 5711 5710 5709 5709 5708 5708 5708 5707 5706 5706 5706 5707 5707 5707 5707 5708 5708 5709 5710 5711 5711 5712 5713
5718 5717 5715 5714 5713 5711 5710 5709 5707 5706 5705 5704 5703 5702 5701 5700 5699 5698 5697 5697 5696 5696 5696 5695 5695 5695 5696 5697 5697 5697 5697 5697 5698 5699 5700 5701 5702 5703
5708 5707 5706 5704 5703 5701 5700 5698 5696 5695 5694 5693 5692 5691 5690 5689 5687 5686 5686 5685 5684 5684 5684 5683 5683 5684 5684 5685 5686 5686 5687 5687 5688 5689 5689 5690 5691 5692
5698 5697 5695 5693 5692 5691 5689 5687 5686 5684 5683 5681 5681 5680 5678 5677 5676 5675 5673 5673 5672 5672 5672 5672 5672 5673 5673 5674 5675 5676 5676 5677 5677 5678 5679 5680 5680 5681
5688 5686 5684 5683 5681 5679 5678 5676 5674 5673 5671 5670 5669 5668 5666 5665 5664 5663 5662 5661 5661 5661 5661 5661 5661 5662 5663 5663 5664 5665 5665 5666 5667 5668 5668 5669 5669 5670
5677 5676 5674 5672 5671 5669 5667 5665 5663 5662 5660 5658 5657 5656 5655 5654 5652 5651 5651 5650 5650 5651 5651 5651 5651 5651 5652 5653 5654 5654 5655 5655 5656 5657 5658 5658 5659 5659
5667 5665 5664 5662 5660 5658 5657 5655 5653 5651 5649 5647 5646 5645 5643 5642 5642 5641 5640 5640 5640 5640 5640 5640 5640 5641 5642 5642 5643 5643 5644 5645 5645 5646 5647 5647 5648 5649
5656 5655 5653 5652 5650 5648 5646 5644 5642 5640 5638 5636 5635 5633 5632 5632 5631 5630 5630 5629 5630 5630 5630 5630 5630 5630 5631 5632 5632 5633 5633 5634 5635 5635 5636 5636 5637 5637
5645 5644 5642 5641 5639 5638 5636 5634 5632 5630 5628 5626 5624 5623 5622 5621 5621 5620 5619 5619 5619 5619 5619 5619 5620 5620 5621 5622 5623 5623 5622 5623 5624 5624 5625 5625 5625 5626
5635 5633 5632 5630 5629 5627 5625 5623 5621 5619 5618 5616 5615 5614 5612 5611 5611 5610 5609 5609 5609 5609 5609 5610 5610 5610 5610 5611 5611 5612 5611 5611 5612 5613 5613 5614 5614 5615
5624 5623 5621 5620 5618 5617 5615 5613 5611 5609 5608 5607 5605 5604 5603 5602 5601 5600 5600 5599 5599 5599 5600 5600 5600 5599 5600 5600 5601 5601 5601 5601 5601 5601 5601 5602 5603 5604
5614 5612 5611 5609 5608 5606 5605 5603 5601 5600 5598 5597 5596 5594 5593 5592 5591 5591 5590 5590 5589 5589 5590 5590 5590 5590 5590 5590 5590 5590 5590 5590 5590 5590 5591 5591 5592 5593